GW0668 Weather Reports


Display with metric or nautical units.
time (UTC)temp
F
wind
direction
speed
MPH
gust
MPH
rain 1hr
in
rain 24hr
in
rain mn
in
humidity
%
barometer
mb
20260906223026 77 58 8.0 13.0 0.00 0.00 0.00 58 1012.6
20260906220016 77 64 7.0 12.0 0.00 0.00 0.00 59 1012.3
20260906213021 77 17 11.0 15.0 0.00 0.00 0.00 60 1012.5
20260906210026 77 19 6.0 14.0 0.00 0.00 0.00 59 1012.9
20260906203012 76 9 8.0 12.0 0.00 0.00 0.00 61 1013.3
20260906200019 75 101 2.0 6.0 0.00 0.00 0.00 63 1013.8
20260906193032 72 8 3.0 8.0 0.00 0.00 0.00 68 1014.3
20260906190016 71 67 7.0 13.0 0.00 0.00 0.00 70 1015.0
20260906183021 69 8 7.0 13.0 0.00 0.00 0.00 74 1015.3
20260906180036 69 49 6.0 11.0 0.00 0.00 0.00 75 1015.8
20260906173041 67 57 6.0 9.0 0.00 0.00 0.00 77 1016.4
20260906170027 65 49 3.0 6.0 0.00 0.00 0.00 76 1016.7
20260906163036 64 31 3.0 4.0 0.00 0.00 0.00 74 1016.9
20260906160019 63 271 1.0 2.0 0.00 0.00 0.00 74 1017.2
20260906153023 62 288 1.0 6.0 0.00 0.00 0.00 73 1017.0
20260906150033 63 298 1.0 5.0 0.00 0.00 0.00 75 1016.8
20260906143022 63 307 2.0 5.0 0.00 0.00 0.00 76 1016.6
20260906140027 60 311 2.0 3.0 0.00 0.00 0.00 80 1016.5
20260906133025 56 289 0.0 0.0 0.00 0.00 0.00 87 1016.4
20260906130043 54 212 0.0 0.0 0.00 0.00 0.00 84 1016.4
20260906123019 54 214 0.0 0.0 0.00 0.00 0.00 83 1016.3
20260906120018 54 215 0.0 0.0 0.00 0.00 0.00 82 1016.5
20260906113034 54 216 0.0 0.0 0.00 0.00 0.00 78 1016.4
20260906110019 53 224 0.0 0.0 0.00 0.00 0.00 79 1016.7
20260906103019 53 198 0.0 0.0 0.00 0.00 0.00 80 1016.7
20260906100014 52 199 0.0 0.0 0.00 0.00 0.00 79 1017.0
20260906093012 52 200 0.0 0.0 0.00 0.00 0.00 79 1016.9
20260906090025 53 201 0.0 1.0 0.00 0.00 0.00 75 1016.9
20260906083016 54 203 0.0 0.0 0.00 0.00 0.00 73 1017.1
20260906080026 55 343 0.0 1.0 0.00 0.00 0.00 71 1017.3
20260906073018 55 343 0.0 1.0 0.00 0.00 0.00 69 1017.4
20260906070011 56 343 0.0 1.0 0.00 0.00 0.00 67 1017.5
20260906063022 57 346 0.0 2.0 0.00 0.00 0.00 64 1017.4
20260906060057 60 283 1.0 1.0 0.00 0.00 0.00 60 1017.3
20260906053022 62 290 0.0 1.0 0.00 0.00 0.00 56 1017.3
20260906050012 66 292 0.0 2.0 0.00 0.00 0.00 51 1017.2
20260906043035 68 296 0.0 0.0 0.00 0.00 0.00 47 1017.0
20260906040035 69 298 0.0 0.0 0.00 0.00 0.00 46 1017.1
20260906033020 69 44 1.0 2.0 0.00 0.00 0.00 44 1017.0
20260906030032 71 51 2.0 5.0 0.00 0.00 0.00 41 1016.8
20260906023019 73 46 4.0 8.0 0.00 0.00 0.00 40 1016.6
20260906020026 74 56 3.0 7.0 0.00 0.00 0.00 39 1016.4
20260906013011 77 70 8.0 12.0 0.00 0.00 0.00 36 1016.2
20260906010018 78 57 7.0 14.0 0.00 0.00 0.00 33 1016.0
20260906003030 79 56 10.0 13.0 0.00 0.00 0.00 31 1015.9
20260906000042 80 49 6.0 12.0 0.00 0.00 0.00 31 1016.1
20260905233047 80 27 7.0 13.0 0.00 0.00 0.00 30 1016.0
20260905230036 80 44 8.0 15.0 0.00 0.00 0.00 30 1015.8